Flag for Switzerland Weather past 2 weeks in Buchs, St. Gallen, Switzerland

Now
62 °F

Refreshingly cool.


Feels Like: 62 °F
Forecast: 50 / 71 °F
Wind: 3 mph from Northwest

Location: Vaduz

Current Time: Apr 25, 2015 at 8:18:23 PM

Latest Report: Apr 25, 2015 at 7:00 PM


Visibility: N/A

Pressure: 29.87 "Hg

Humidity: 59%

Dew point: 47 °F

Location of BuchsLocation

Historic Weather in Buchs — Graph

°F

Buchs temperature yesterday

Maximum temperature yesterday: 71 °F (at 3:00 PM)
Minimum temperature yesterday: 38 °F (at 6:00 AM)
Average temperature yesterday: 55 °F

Past Weeks' High & Low Weather Summary

 TemperatureHumidityPressure
High76 °F (Apr 15, 3:00 PM)96% (Apr 18, 2:00 AM)30.48 "Hg (Apr 18, 2:00 AM)
Low34 °F (Apr 19, 7:00 AM)19% (Apr 15, 3:00 PM)29.85 "Hg (Apr 25, 4:00 PM)
Average56 °F54%30.16 "Hg
* Reported Apr 10 7:00 PM — Apr 25 7:00 PM, Buchs, Weather by CustomWeather, © 2015

Note: Actual official high and low records may vary slightly from our data, if they occured in-between our weather recording intervals... More about our weather records

Advertising

Buchs weather history for previous 24 hours

 ConditionsComfort  
Time TempWeatherWind HumidityBarometerVisibility
7:00 PM
Sat, Apr 25
62 °FRefreshingly cool.3 mph59%29.87 "HgN/A
6:00 PM63 °FMild.3 mph56%29.86 "HgN/A
5:00 PM64 °FOvercast.6 mph53%29.85 "Hg7 mi
4:00 PM64 °FMild.1 mph55%29.85 "HgN/A
3:00 PM63 °FMild.5 mph54%29.86 "HgN/A
2:00 PM63 °FOvercast.6 mph55%29.86 "Hg7 mi
1:00 PM65 °FMild.8 mph44%29.86 "HgN/A
12:00 PM64 °FMild.5 mph48%29.87 "HgN/A
11:00 AM64 °FOvercast.1 mph40%29.88 "Hg7 mi
10:00 AM62 °FRefreshingly cool.6 mph41%29.89 "HgN/A
9:00 AM60 °FRefreshingly cool.5 mph47%29.91 "HgN/A
8:00 AM59 °FPartly sunny.7 mph41%29.90 "Hg7 mi
7:00 AM57 °FRefreshingly cool.6 mph41%29.90 "HgN/A
6:00 AM57 °FRefreshingly cool.7 mph41%29.90 "HgN/A
5:00 AM57 °FFog.7 mph40%29.90 "Hg7 mi
4:00 AM57 °FRefreshingly cool.8 mph40%29.91 "HgN/A
3:00 AM57 °FRefreshingly cool.7 mph41%29.91 "HgN/A
2:00 AM57 °FFog.6 mph39%29.93 "Hg7 mi
1:00 AM57 °FRefreshingly cool.6 mph40%29.93 "HgN/A
12:00 AM58 °FRefreshingly cool.6 mph45%29.94 "HgN/A
11:00 PM
Fri, Apr 24
54 °FCool.5 mph59%29.95 "HgN/A
10:00 PM53 °FCool.No wind73%29.94 "HgN/A
9:00 PM57 °FRefreshingly cool.No wind59%29.91 "HgN/A
8:00 PM62 °FRefreshingly cool.2 mph49%29.89 "HgN/A
Weather by CustomWeather, © 2015

See weather overviewHow to use our weather pages